Tracking 34348 objects as of 9-Jun-2026
HD Live streaming from Space Station
objects crossing your sky now

DELTA 1 DEB

Track DELTA 1 DEB now!
10-day predictions


NORAD ID: 7058
Int'l Code: 1973-086BA
Perigee: 1,443.2 km
Apogee: 1,459.3 km
Inclination: 101.8 °
Period: 114.8 minutes
Semi major axis: 7822 km
RCS: 0.0607 m2 (small)
Launch date: November 6, 1973
Source: United States (US)
Launch site: AIR FORCE WESTERN TEST RANGE (AFWTR)

Note: This is SATELLITE DEBRIS
Your satellite tracking list
Your tracking list is empty




NASA's NSSDC Master Catalog

Two Line Element Set (TLE):
1  7058U 73086BA  26159.81656345  .00000337  00000-0  23576-2 0  9993
2  7058 101.8429 148.3004 0010290  63.6413  56.4020 12.54877755398112
Source of the keplerian elements: AFSPC